sat.trackr.live / text

‹ back to catalog

ONEWEB-0582

NORAD 54649 · 2022-166H

PAYLOAD ACTIVE UNKNOWN

§ Identity

Operator
Country
UK
Launch date
2022-12-08
Launch site
AFETR
Launch vehicle
Mass (kg)
RCS (m²)

Purposes: comms

External: N2YO · Heavens-Above · Gunter

§ Orbital elements

Epoch: 2026-05-25T01:03:05.984064Z

Period
108.94 min
Inclination
87.9251°
Eccentricity
0.0002422
Mean motion
13.21824878 rev/d
Perigee alt
1,175.9 km
Apogee alt
1,179.6 km
Semi-major
7,555.9 km
B*
-8.0915e-5
RAAN
248.5790°
Arg perigee
96.8640°
Mean anomaly
263.2770°
Rev number
16,846

§ Raw data

ONEWEB-05821 54649U 22166H   26145.04381926 -.00000020  00000+0 -80915-4 0  99962 54649  87.9251 248.5790 0002422  96.8640 263.2770 13.21824878168466

JSON: /api/v1/satellites/54649 · /tle

For live sub-satellite position, see the globe view (requires WebGL).

§ Visibility from observer

Set your observer location to see the next 7 days of passes ≥ 10°. The values pass through the URL so the page stays shareable.

No JS? Fill the form by hand. The geolocation button needs JavaScript.